User: anonymous   Login
Location: Stoke Bliss
(52.2667°N, 2.5167°W)
Time: 17:13:24
(UTC+00:00)
Language:

H-2A R/B - Orbit

View from above orbital plane
View from above orbital plane
View from above satellite
View from above satellite

Ground track
Ground track

The orbit data is extracted from the following two-line orbital elements,

1 38341U 12025E   21125.78621308  .00000107  00000-0  20178-4 0  9995
2 38341  98.5276 308.3551 0054106 276.7495  82.7562 14.84213034485174
Epoch (UTC): 05 May 2021 18:52:08
Eccentricity: 0.0054106
inclination: 98.5276°
perigee height: 578 km
apogee height: 654 km
right ascension of ascending node: 308.3551°
argument of perigee: 276.7495°
revolutions per day: 14.84213034
mean anomaly at epoch: 82.7562°
orbit number at epoch: 48517

The dashed part of the orbit path shows where the satellite is in the earth's shadow,  

DLR